TimeCDT,TemperatureF,Dew PointF,Humidity,Sea Level PressureIn,VisibilityMPH,Wind Direction,Wind SpeedMPH,Gust SpeedMPH,PrecipitationIn,Events,Conditions,WindDirDegrees,DateUTC
12:53 AM,61.0,43.0,52,29.88,10.0,ENE,15.0,-,N/A,,Scattered Clouds,70,2013-05-17 05:53:00
1:53 AM,61.0,42.1,50,29.88,10.0,East,12.7,-,N/A,,Mostly Cloudy,80,2013-05-17 06:53:00
2:53 AM,60.1,42.1,51,29.89,10.0,ENE,8.1,-,N/A,,Overcast,70,2013-05-17 07:53:00
3:53 AM,61.0,41.0,48,29.89,10.0,ENE,10.4,-,N/A,,Overcast,60,2013-05-17 08:53:00
4:53 AM,57.9,39.0,49,29.89,10.0,East,9.2,-,N/A,,Partly Cloudy,80,2013-05-17 09:53:00
5:53 AM,55.0,37.9,53,29.90,10.0,East,8.1,-,N/A,,Clear,80,2013-05-17 10:53:00
6:53 AM,57.9,36.0,44,29.91,10.0,East,6.9,-,N/A,,Clear,100,2013-05-17 11:53:00
7:53 AM,62.1,34.0,35,29.92,10.0,East,12.7,-,N/A,,Clear,100,2013-05-17 12:53:00
8:53 AM,66.9,35.1,31,29.92,10.0,ESE,17.3,23.0,N/A,,Clear,120,2013-05-17 13:53:00
9:53 AM,69.1,37.9,32,29.91,10.0,ESE,15.0,-,N/A,,Clear,120,2013-05-17 14:53:00
10:53 AM,71.1,41.0,34,29.90,10.0,SE,16.1,-,N/A,,Clear,140,2013-05-17 15:53:00
11:53 AM,71.1,42.1,35,29.89,10.0,ESE,13.8,-,N/A,,Overcast,120,2013-05-17 16:53:00
12:53 PM,75.0,46.9,37,29.88,10.0,SE,13.8,23.0,N/A,,Mostly Cloudy,130,2013-05-17 17:53:00
1:53 PM,73.4,51.8,47,29.87,10.0,SE,13.8,19.6,N/A,,Overcast,140,2013-05-17 18:53:00
2:53 PM,73.0,51.1,46,29.87,10.0,SSE,13.8,-,N/A,,Overcast,160,2013-05-17 19:53:00
3:53 PM,73.9,52.0,46,29.86,10.0,SE,15.0,21.9,N/A,,Overcast,130,2013-05-17 20:53:00
4:53 PM,72.0,52.0,49,29.86,10.0,SE,15.0,-,N/A,,Overcast,140,2013-05-17 21:53:00
5:53 PM,71.1,51.1,49,29.86,10.0,SE,15.0,-,N/A,,Overcast,140,2013-05-17 22:53:00
6:53 PM,70.0,53.1,55,29.87,10.0,SE,15.0,-,N/A,,Overcast,140,2013-05-17 23:53:00
7:53 PM,68.0,53.1,59,29.86,10.0,ESE,15.0,-,N/A,,Overcast,120,2013-05-18 00:53:00
8:20 PM,66.2,53.6,64,29.85,10.0,SE,13.8,-,N/A,,Overcast,140,2013-05-18 01:20:00
8:53 PM,66.0,54.0,65,29.86,10.0,SE,15.0,-,N/A,,Overcast,130,2013-05-18 01:53:00
9:53 PM,64.0,53.1,67,29.88,10.0,ESE,12.7,-,N/A,,Overcast,120,2013-05-18 02:53:00
10:53 PM,63.0,53.1,70,29.88,10.0,SE,10.4,-,N/A,,Overcast,130,2013-05-18 03:53:00
11:53 PM,63.0,53.1,70,29.87,10.0,ESE,12.7,-,N/A,,Overcast,120,2013-05-18 04:53:00